Find FALCON HEAVY R/B

NORAD ID: 68894 Int'l Des: 2026-096B Owner: SPX Country: US operational
MEOELLIPTICAL

現在のビュー

3D地球を読み込み中...

About FALCON HEAVY R/B

FALCON HEAVY R/B (NORAD 68894) is a satellite launched Apr 29, 2026 by SPX of US. It operates in MEO, ELLIPTICAL orbit with a mass of 4000.00 kg.

次回通過

Passes for default location (London). Set your location on the main map for personalized predictions.

高度履歴

Loading altitude history...

軌道要素

1 68894U 26096B 26168.40380431 -.00000107 00000-0 00000+0 0 9992
2 68894 2.6231 279.4218 1482815 182.2030 177.5884 1.35919132 665
Epoch: Jun 17, 2026 • Age: 25 hours

現在のステータス

高度 24146.5 km
速度 3.81 km/s
衛星直下点 1.84°N, 10.08°W
打ち上げ日 Apr 29, 2026
運用期間 0.1 years
タイプ rocket

技術仕様

分類 Launch Vehicle Stage
質量 4000.00 kg
乾燥質量 4000.00 kg
総質量 4000.00 kg
長さ 12.60 m
直径 3.60 m
スパン 12.60 m
形状 Cyl
製造者 SPX
バスタイプ F9St2
フェーズステータス In Orbit
所有者/国 SPX/US

Most Searched